Regional Weather Roundup
Issued by NWS New Orleans/Baton Rouge, LA

Home | Current Version | Previous Version | Text Only | Print | Product List | Glossary On
Versions: 1 2 3 4 5 6 7 8 9 10 11 12 13 14 15 16 17 18 19 20 21 22 23 24 25 26 27 28 29 30 31 32 33 34 35 36 37 38 39 40 41 42 43 44 45 46 47 48 49 50
252
ASUS44 KLIX 271705
RWRLIX
NEW ORLEANS REGIONAL WEATHER ROUNDUP
NATIONAL WEATHER SERVICE NEW ORLEANS LA
1200 PM CDT SUN JUL 27 2014

NOTE: "FAIR" INDICATES FEW OR NO CLOUDS BELOW 12,000 FEET WITH NO
      SIGNIFICANT WEATHER AND/OR OBSTRUCTIONS TO VISIBILITY.
      SKY/WX - SKY CONDITION AND SIGNIFICANT WEATHER.
      TMP - AIR TEMPERATURE.     DP    - DEWPOINT TEMPERATURE.
      RH  - RELATIVE HUMIDITY.   PRES  - PRESSURE.
      HI  - HEAT INDEX.          WCI   - WIND CHILL INDEX.

*  THESE STATIONS ARE NOT NWS OR FAA STATIONS AND ARE NOT UNDER
   NWS QUALITY CONTROL.

LAZ038-040-048-061>063-065>067-069-271800-
SOUTHEAST LOUISIANA

CITY           SKY/WX    TMP DP  RH WIND       PRES   REMARKS
N.O. AUDUBON     N/A     93  76  58 MISG        N/A  HX 106
N.O. INTL ARPT MOSUNNY   91  74  57 W9        30.10F HX 100
N.O. LAKEFRONT SUNNY     88  76  67 NW7       30.11F HX  99
N.O. DOWNTOWN* PTSUNNY   91  72  52 SW8       30.11S HX  98
SLIDELL        MOSUNNY   90  72  55 W7        30.09F HX  97
BATON ROUGE    PTSUNNY   90  75  61 W10       30.10F HX 100
BOOTHVILLE     MOSUNNY   87  75  67 SW10      30.12F HX  96
BELLE CHASSE   PTSUNNY   90  73  57 S7        30.10F HX  98
BOGALUSA*      NOT AVBL
GALLIANO*      NOT AVBL
NEW ROADS*     NOT AVBL
GONZALES*      NOT AVBL
HAMMOND*       NOT AVBL
HOUMA*         MOSUNNY   91  73  55 SW5       30.11S HX 100
PORT FOURCHON* SUNNY     88  77  70 SW8G14    30.14S HX 100

$$

MSZ070-080>082-271800-
SOUTHERN MISSISSIPPI

CITY           SKY/WX    TMP DP  RH WIND       PRES   REMARKS
MCCOMB         MOSUNNY   88  73  61 SW7       30.11S HX  95
GULFPORT       MOSUNNY   93  72  50 W8        30.08F HX 101
BILOXI         MOSUNNY   90  75  62 VRB3      30.09F HX 101
PASCAGOULA     MOSUNNY   90  74  59 VRB6      30.09S HX  99
STENNIS ARPT*  MOSUNNY  N/A N/A N/A NW9       30.10S

$$

COASTAL OBSERVATIONS
LAKE AND NEARSHORE STATIONS

STATION/POSITION TIME  TEMP    WIND        PRES    WAVE
                       AIR SEA DIR/SP/G            HT/PER
                 (UTC) (F)     (DEG/KT/KT) (MB)    (FT/S)
PASCAGOULA       1622   86     240/ 10/ 13 1018.6
WAVELAND YACHT   1622   87     290/  9/ 12 1018.7
GRAND ISLE       1622   85 85  270/  8/  9 1020.7
SOUTHWEST PASS   1622   86 84  300/  5/ 12 1020.5
NEW CANAL        1622   86 84  320/  2/  4 1020.1
SHELL BEACH      1622   86 82  340/  7/  7 1019.6

OFFSHORE STATIONS

STATION/POSITION TIME  TEMP    WIND        PRES    WAVE
                       AIR SEA DIR/SP/G            HT/PER
                 (UTC) (F)     (DEG/KT/KT) (MB)    (FT/S)
64 S DAUPHIN ISL 1551   84 87  300/  8/ 10 1020.1

$$




USA.gov is the U.S. government's official web portal to all federal, state and local government web resources and services.